Regional Weather Roundup
Issued by NWS Albany, NY

Home | Current Version | Previous Version | Text Only | Print | Product List | Glossary On
Versions: 1 2 3 4 5 6 7 8 9 10 11 12 13 14 15 16 17 18 19 20 21 22 23 24 25 26 27
000
ASUS41 KALY 181010
RWRALY

NEW YORK STATE HOURLY WEATHER ROUNDUP
NATIONAL WEATHER SERVICE ALBANY NY
500 AM EST MON DEC 18 2017

NOTE: "FAIR" INDICATES FEW OR NO CLOUDS BELOW 12,000 FEET WITH NO
SIGNIFICANT WEATHER AND/OR NO OBSTRUCTIONS TO VISIBILITY.

NYZ032-033-038>043-046>054-057>066-NYZ062>081-082-084-181100-
EAST


CITY           SKY/WX    TMP DP  RH WIND       PRES   REMARKS
ALBANY         CLOUDY    19  10  68 CALM      30.14F
GLENS FALLS    LGT SNOW  13  10  88 CALM      30.14F FOG
POUGHKEEPSIE   CLOUDY    28  18  66 CALM      30.14F
NEWBURGH       CLOUDY    27  23  86 CALM      30.14F
MONTGOMERY     CLOUDY    27  19  72 CALM      30.13F
WHITE PLAINS   LGTSLEET  30  24  78 NE5       30.13S WCI  25
ISLIP          MIX PCPN  33  23  66 NE5       30.15F WCI  29
NEW YORK CITY  CLOUDY    36  29  75 NE7       30.15S WCI  30
CENTRAL PARK   CLOUDY    34  30  85 NE7       30.16S WCI  28
$$

NYZ005>009-017-018-044>046-055-056-181100-
CENTRAL


CITY           SKY/WX    TMP DP  RH WIND       PRES   REMARKS
FULTON         CLOUDY    25  21  85 CALM      30.03F
SYRACUSE       CLOUDY    22  20  92 E6        30.02F WCI  14
ROME           CLOUDY    21  17  84 SE9       30.06F WCI  11
ELMIRA         CLOUDY    29  24  82 CALM      30.03S
BINGHAMTON     CLOUDY    31  26  82 S7        29.99F WCI  24
MONTICELLO     CLOUDY    25  22  88 CALM      30.08F
$$

NYZ026>034-041>043-087-181100-
NORTH


CITY           SKY/WX    TMP DP  RH WIND       PRES   REMARKS
WATERTOWN      PTCLDY    16  11  80 N6        30.03F WCI   7
FORT DRUM      NOT AVBL
OGDENSBURG     MOCLDY    13   7  78 E3        30.06F
MASSENA        CLOUDY    11   9  92 E3        30.10F
SARANAC LAKE   FLURRIES   9   6  88 CALM      29.97F
PLATTSBURGH    CLOUDY    13   7  77 CALM      30.11F
$$

NYZ001>004-010>016-019>021-085-181100-
WEST


CITY           SKY/WX    TMP DP  RH WIND       PRES   REMARKS
NIAGARA FALLS  CLOUDY    29  21  72 S3        29.97F
BUFFALO        CLOUDY    31  28  89 CALM      29.97F
DUNKIRK        CLOUDY    37  34  89 S14       29.99F WCI  28
JAMESTOWN      CLOUDY    34  34 100 SW8       29.98F WCI  27
WELLSVILLE     CLOUDY    36  32  85 SW10      29.98F WCI  28
ROCHESTER      CLOUDY    27  23  85 CALM      30.00F
PENN YAN       CLOUDY    34  28  79 SW9       30.01S WCI  27
$$

             KEY
       WCI = WIND CHILL INDEX
       VSB = VISIBILITY
       HX  = HEAT INDEX
$$




USA.gov is the U.S. government's official web portal to all federal, state and local government web resources and services.